Total_Precipitation_Accumulation
0.31 0.35 0.30 0.23 0.20 0.17 0.15 0.16 0.14 0.11 0.10 0.11 0.09 0.06 0.02 0.03 0.04 0.03 0.02 0.03 0.02 0.01 0.01 0.01 0.01 0.02 0.03 0.06 0.08 0.10 0.10 0.16 0.18 0.18 0.23 0.27 0.24 0.24 0.26 0.24 0.20 0.20 0.18 0.18
0.33 0.26 0.13 0.11 0.15 0.19 0.20 0.18 0.14 0.11 0.10 0.12 0.10 0.06 0.03 0.03 0.03 0.03 0.03 0.02 0.02 0.01 0.01 0.02 0.03 0.03 0.02 0.04 0.06 0.09 0.09 0.12 0.17 0.17 0.18 0.22 0.22 0.22 0.23 0.24 0.24 0.23 0.21 0.18
0.28 0.15 0.09 0.13 0.18 0.22 0.24 0.21 0.15 0.15 0.13 0.13 0.12 0.08 0.03 0.02 0.03 0.03 0.02 0.02 0.02 0.01 0.01 0.02 0.03 0.03 0.03 0.04 0.05 0.08 0.09 0.09 0.13 0.18 0.21 0.25 0.29 0.27 0.27 0.27 0.25 0.25 0.24 0.20
0.24 0.12 0.13 0.16 0.17 0.18 0.19 0.14 0.14 0.18 0.26 0.26 0.18 0.17 0.05 0.03 0.03 0.03 0.02 0.02 0.01 0.01 0.01 0.01 0.02 0.02 0.03 0.04 0.05 0.08 0.11 0.10 0.10 0.14 0.22 0.25 0.28 0.26 0.22 0.21 0.23 0.24 0.24 0.23
0.27 0.13 0.14 0.16 0.11 0.12 0.14 0.12 0.16 0.21 0.30 0.30 0.20 0.20 0.07 0.03 0.04 0.03 0.01 0.01 0.01 0.01 0.01 0.02 0.01 0.02 0.02 0.02 0.03 0.06 0.11 0.12 0.11 0.12 0.15 0.22 0.24 0.23 0.24 0.25 0.24 0.26 0.26 0.24
0.19 0.13 0.14 0.13 0.09 0.11 0.17 0.23 0.29 0.32 0.44 0.46 0.16 0.14 0.07 0.04 0.04 0.02 0.01 0.01 0.01 0.02 0.02 0.03 0.03 0.03 0.02 0.03 0.04 0.05 0.08 0.11 0.12 0.14 0.15 0.19 0.22 0.23 0.26 0.28 0.29 0.27 0.27 0.26
0.25 0.16 0.12 0.12 0.18 0.19 0.29 0.48 0.67 0.67 0.62 0.36 0.07 0.08 0.07 0.04 0.03 0.02 0.01 0.01 0.01 0.02 0.03 0.03 0.03 0.04 0.03 0.03 0.04 0.05 0.07 0.10 0.12 0.13 0.15 0.16 0.20 0.23 0.24 0.28 0.29 0.28 0.28 0.29
0.30 0.20 0.11 0.10 0.15 0.22 0.26 0.38 0.55 0.54 0.33 0.12 0.05 0.06 0.05 0.04 0.03 0.01 0.01 0.01 0.02 0.02 0.03 0.03 0.03 0.02 0.03 0.03 0.03 0.05 0.06 0.08 0.11 0.13 0.15 0.16 0.18 0.21 0.21 0.25 0.30 0.30 0.28 0.28
0.33 0.20 0.08 0.06 0.07 0.15 0.27 0.27 0.25 0.40 0.31 0.20 0.11 0.07 0.05 0.03 0.02 0.01 0.01 0.02 0.02 0.03 0.03 0.03 0.02 0.02 0.02 0.03 0.03 0.06 0.07 0.08 0.09 0.13 0.16 0.18 0.18 0.19 0.19 0.20 0.26 0.30 0.29 0.27
0.38 0.30 0.12 0.08 0.12 0.15 0.19 0.27 0.37 0.57 0.54 0.30 0.12 0.07 0.07 0.03 0.02 0.02 0.02 0.03 0.04 0.04 0.04 0.03 0.03 0.02 0.03 0.03 0.03 0.06 0.09 0.09 0.10 0.11 0.15 0.20 0.20 0.21 0.20 0.20 0.22 0.27 0.30 0.31
0.37 0.43 0.24 0.17 0.19 0.17 0.18 0.27 0.45 0.56 0.45 0.31 0.17 0.09 0.08 0.06 0.04 0.03 0.02 0.03 0.05 0.06 0.06 0.05 0.03 0.03 0.03 0.04 0.05 0.06 0.10 0.11 0.12 0.13 0.14 0.17 0.23 0.25 0.27 0.28 0.28 0.29 0.32 0.37
0.37 0.52 0.37 0.18 0.13 0.13 0.19 0.23 0.32 0.51 0.44 0.26 0.21 0.10 0.05 0.05 0.04 0.03 0.02 0.03 0.04 0.05 0.06 0.06 0.05 0.04 0.05 0.05 0.07 0.09 0.12 0.12 0.14 0.15 0.16 0.17 0.22 0.29 0.33 0.36 0.36 0.37 0.39 0.41
0.56 0.76 0.63 0.38 0.27 0.24 0.27 0.26 0.28 0.38 0.46 0.36 0.29 0.11 0.02 0.03 0.04 0.03 0.02 0.02 0.02 0.03 0.05 0.05 0.06 0.06 0.07 0.07 0.08 0.13 0.16 0.15 0.15 0.16 0.17 0.21 0.24 0.31 0.38 0.43 0.45 0.45 0.45 0.48
0.77 0.85 0.65 0.45 0.30 0.28 0.29 0.24 0.25 0.40 0.55 0.35 0.17 0.07 0.02 0.02 0.03 0.04 0.03 0.03 0.02 0.02 0.04 0.05 0.05 0.06 0.07 0.08 0.09 0.14 0.17 0.17 0.20 0.23 0.24 0.28 0.35 0.39 0.44 0.48 0.49 0.49 0.50 0.52
0.80 0.80 0.44 0.24 0.14 0.15 0.18 0.16 0.17 0.24 0.26 0.25 0.11 0.06 0.05 0.04 0.04 0.05 0.04 0.04 0.03 0.03 0.04 0.06 0.06 0.06 0.07 0.09 0.11 0.15 0.20 0.24 0.29 0.36 0.38 0.38 0.38 0.42 0.42 0.44 0.46 0.49 0.52 0.55
0.75 0.74 0.43 0.27 0.16 0.16 0.17 0.12 0.10 0.11 0.11 0.10 0.07 0.07 0.05 0.03 0.02 0.02 0.03 0.04 0.04 0.05 0.06 0.07 0.08 0.08 0.08 0.12 0.17 0.24 0.30 0.34 0.38 0.43 0.46 0.44 0.39 0.39 0.43 0.43 0.43 0.47 0.51 0.50
0.72 0.75 0.69 0.41 0.18 0.29 0.31 0.12 0.08 0.08 0.07 0.06 0.07 0.06 0.04 0.03 0.03 0.02 0.02 0.04 0.05 0.06 0.07 0.09 0.10 0.13 0.14 0.18 0.25 0.32 0.36 0.38 0.39 0.42 0.46 0.48 0.44 0.40 0.41 0.42 0.39 0.39 0.40 0.41
0.52 0.61 0.85 0.64 0.43 0.54 0.22 0.05 0.05 0.07 0.07 0.06 0.06 0.05 0.04 0.03 0.03 0.02 0.03 0.06 0.07 0.09 0.11 0.13 0.15 0.17 0.20 0.25 0.29 0.34 0.37 0.39 0.40 0.40 0.39 0.40 0.37 0.32 0.32 0.36 0.33 0.32 0.33 0.36
0.27 0.49 0.89 0.83 0.63 0.32 0.08 0.03 0.05 0.08 0.09 0.08 0.07 0.05 0.04 0.04 0.03 0.04 0.06 0.07 0.08 0.09 0.10 0.10 0.11 0.14 0.18 0.23 0.27 0.28 0.29 0.31 0.31 0.30 0.28 0.28 0.25 0.23 0.26 0.31 0.28 0.27 0.27 0.30
0.22 0.43 0.90 0.91 0.73 0.32 0.08 0.03 0.04 0.09 0.12 0.08 0.08 0.07 0.06 0.10 0.22 0.12 0.11 0.08 0.06 0.05 0.05 0.06 0.06 0.08 0.10 0.14 0.17 0.17 0.18 0.19 0.21 0.21 0.20 0.25 0.21 0.18 0.21 0.26 0.25 0.25 0.26 0.29
0.35 0.62 0.84 0.74 0.65 0.25 0.06 0.03 0.06 0.16 0.17 0.12 0.11 0.10 0.14 0.21 0.27 0.16 0.10 0.08 0.06 0.05 0.04 0.04 0.05 0.07 0.11 0.13 0.14 0.14 0.12 0.13 0.14 0.15 0.17 0.23 0.24 0.20 0.19 0.22 0.26 0.25 0.26 0.29
0.32 0.47 0.50 0.51 0.66 0.29 0.05 0.07 0.12 0.17 0.13 0.12 0.14 0.16 0.21 0.16 0.08 0.07 0.07 0.07 0.05 0.04 0.04 0.04 0.06 0.10 0.15 0.17 0.13 0.10 0.08 0.08 0.10 0.13 0.16 0.21 0.28 0.24 0.22 0.23 0.25 0.25 0.26 0.30
0.24 0.31 0.34 0.33 0.26 0.09 0.06 0.09 0.10 0.11 0.13 0.17 0.25 0.25 0.24 0.20 0.13 0.11 0.09 0.07 0.05 0.05 0.06 0.07 0.09 0.14 0.17 0.13 0.09 0.08 0.07 0.08 0.09 0.12 0.16 0.21 0.26 0.25 0.24 0.24 0.26 0.26 0.27 0.32
0.14 0.16 0.24 0.23 0.13 0.08 0.06 0.06 0.06 0.09 0.14 0.18 0.21 0.23 0.25 0.26 0.20 0.15 0.12 0.10 0.07 0.07 0.09 0.10 0.10 0.14 0.16 0.12 0.07 0.06 0.07 0.07 0.09 0.12 0.17 0.21 0.24 0.25 0.25 0.24 0.24 0.26 0.31 0.44
0.12 0.13 0.17 0.15 0.09 0.09 0.08 0.07 0.08 0.11 0.10 0.09 0.10 0.14 0.22 0.28 0.22 0.13 0.11 0.11 0.12 0.12 0.12 0.13 0.13 0.14 0.14 0.10 0.06 0.06 0.08 0.10 0.11 0.13 0.16 0.22 0.26 0.27 0.27 0.25 0.25 0.29 0.32 0.54
0.08 0.08 0.12 0.10 0.07 0.10 0.08 0.07 0.10 0.13 0.11 0.10 0.13 0.14 0.15 0.18 0.17 0.13 0.14 0.15 0.16 0.18 0.19 0.19 0.16 0.12 0.10 0.09 0.08 0.08 0.10 0.14 0.15 0.16 0.19 0.22 0.27 0.29 0.29 0.29 0.29 0.30 0.33 0.43